COSMOS 2433 (720)

Last updated on Tue Jul 01 2025 00:03:16 GMT+0000 (Coordinated Universal Time)

1 32275U 07052A 25180.97206591 -.00000070 00000+0 00000+0 0 9994 2 32275 65.7704 327.7661 0002624 200.6512 159.3322 2.13104195137554
UTC large
Height (km)
Speed (km/s)
/
Latitude / Longitude
Inclination (degrees)
Orbital Period (minutes)
Azimuth
Elevation
Range (km)
Doppler Factor

Next 0 passes for location: London (51.5072 / 0.1276)

Sorry there are no passes over London.